Latest Weather Observations for Laverton

IDV60801

Issued at 10:35 am EDT Sunday 23 November 2014 (issued every 30 minutes, with the page automatically refreshed every 10 minutes)

About weather observations | Map of weather stations | Latest weather observations for VIC | Other Formats
Station Details ID: 087031 Name: LAVERTON RAAF Lat: -37.86 Lon: 144.76 Height: 20.1 m
Data from the previous 72 hours. | See also: Recent months at Laverton
Date/Time
EDT
Temp
°C
App
Temp
°C
Dew
Point
Rel
Hum
%
Delta-T
°C
Wind Press
QNH
hPa
Press
MSL
hPa
Rain
since 9 am
mm
Dir
 
Spd
km/h
Gust
km/h
Spd
kts
Gust
kts
23/10:30am 20.8 19.4 13.5 63 4.2 SE 13 20 7 11 1012.4 1012.3 0.0
23/10:00am 20.0 18.5 13.2 65 3.9 S 13 20 7 11 1012.6 1012.5 0.0
23/09:30am 19.5 18.4 13.2 67 3.6 SSW 11 19 6 10 1012.7 1012.6 0.0
23/09:00am 18.9 17.9 12.4 66 3.6 SSW 9 13 5 7 1012.8 1012.7 0.0
23/08:30am 18.4 17.9 12.8 70 3.1 SSW 7 11 4 6 1012.6 1012.5 0.0
23/08:00am 17.9 17.1 12.8 72 2.9 SSW 9 13 5 7 1012.4 1012.3 0.0
23/07:30am 17.4 16.9 12.7 74 2.6 WSW 7 11 4 6 1012.0 1011.9 0.0
23/07:00am 16.4 15.8 12.4 77 2.2 W 7 9 4 5 1011.9 1011.8 0.0
23/06:30am 16.3 15.7 12.3 77 2.2 W 7 9 4 5 1011.5 1011.5 0.0
23/06:00am 16.4 15.4 12.4 77 2.2 W 9 13 5 7 1011.3 1011.3 0.0
23/05:30am 16.4 15.4 12.4 77 2.2 WNW 9 11 5 6 1011.4 1011.4 0.0
23/05:00am 16.6 15.6 12.2 75 2.4 W 9 15 5 8 1011.1 1011.1 0.0
23/04:30am 16.8 16.1 12.1 74 2.6 WSW 7 11 4 6 1011.1 1011.1 0.0
23/04:00am 16.7 15.3 12.3 75 2.4 SW 11 15 6 8 1010.6 1010.6 0.0
23/03:30am 16.8 14.9 11.9 73 2.7 SW 13 19 7 10 1010.4 1010.4 0.0
23/03:00am 17.6 15.0 12.1 70 3.0 SW 17 24 9 13 1010.0 1010.0 0.0
23/02:30am 17.5 16.5 12.2 71 2.9 W 9 11 5 6 1009.8 1009.8 0.0
23/02:00am 17.7 15.8 11.9 69 3.2 W 13 17 7 9 1009.5 1009.5 0.0
23/01:30am 18.3 16.9 12.1 67 3.4 W 11 15 6 8 1009.7 1009.7 0.0
23/01:00am 18.5 16.8 12.3 67 3.5 W 13 19 7 10 1009.9 1009.9 0.0
23/12:30am 17.3 16.6 12.0 71 2.9 NW 7 9 4 5 1009.8 1009.8 0.0
23/12:00am 17.9 16.8 12.1 69 3.2 W 9 13 5 7 1009.3 1009.3 0.0
 
Date/Time
EDT
Temp
°C
App
Temp
°C
Dew
Point
Rel
Hum
%
Delta-T
°C
Wind Press
QNH
hPa
Press
MSL
hPa
Rain
since 9 am
mm
Dir
 
Spd
km/h
Gust
km/h
Spd
kts
Gust
kts
22/11:30pm 17.8 18.6 12.5 71 2.9 CALM 0 7 0 4 1009.2 1009.2 0.0
22/11:00pm 18.6 17.3 12.6 68 3.4 SW 11 15 6 8 1009.0 1009.0 0.0
22/10:30pm 19.1 18.2 12.6 66 3.6 SW 9 15 5 8 1009.0 1009.0 0.0
22/10:00pm 19.8 17.4 12.6 63 4.1 SSW 17 22 9 12 1008.2 1008.2 0.0
22/09:30pm 24.8 22.8 10.3 40 8.0 W 11 13 6 7 1007.0 1007.0 0.0
22/09:00pm 26.7 23.1 10.0 35 9.3 NNW 19 30 10 16 1006.3 1006.3 0.0
22/08:30pm 27.9 22.2 9.7 32 10.1 NW 30 41 16 22 1006.0 1006.0 0.0
22/08:00pm 28.7 23.5 8.9 29 11.0 NW 26 41 14 22 1005.1 1005.1 0.0
22/07:30pm 29.5 23.6 7.4 25 11.9 NNW 28 46 15 25 1005.0 1005.0 0.0
22/07:28pm 29.6 23.7 7.5 25 12.0 NNW 28 46 15 25 1005.0 1005.0 0.0
22/07:00pm 30.5 23.2 7.0 23 12.7 NNW 35 50 19 27 1004.6 1004.6 0.0
22/06:30pm 30.3 23.5 7.5 24 12.4 NNW 33 44 18 24 1004.8 1004.8 0.0
22/06:00pm 30.8 24.0 7.9 24 12.6 NNW 33 46 18 25 1004.8 1004.8 0.0
22/05:51pm 30.6 24.0 7.7 24 12.5 NNW 32 50 17 27 1005.0 1005.0 0.0
22/05:30pm 30.7 24.5 7.8 24 12.5 NNW 30 46 16 25 1004.8 1004.8 0.0
22/05:00pm 30.5 24.0 8.3 25 12.3 NNW 32 52 17 28 1004.9 1004.9 0.0
22/04:30pm 31.4 24.2 7.8 23 13.0 NNW 35 61 19 33 1004.7 1004.7 0.0
22/04:18pm 31.7 25.9 8.0 23 13.1 N 28 46 15 25 1004.9 1004.9 0.0
22/04:00pm 31.3 24.7 7.7 23 13.0 N 32 44 17 24 1005.2 1005.2 0.0
22/03:40pm 30.4 24.2 6.3 22 12.8 NNW 28 46 15 25 1005.6 1005.6 0.0
22/03:30pm 30.2 23.4 6.8 23 12.6 NNW 32 44 17 24 1006.1 1006.1 0.0
22/03:16pm 29.8 23.0 7.1 24 12.2 NNW 32 50 17 27 1006.5 1006.5 0.0
22/03:00pm 28.9 23.1 8.0 27 11.4 N 28 41 15 22 1007.1 1007.1 0.0
22/02:43pm 27.8 22.0 8.1 29 10.7 N 28 48 15 26 1007.1 1007.1 0.0
22/02:30pm 27.3 21.2 8.2 30 10.3 N 30 41 16 22 1007.1 1007.1 0.0
22/02:00pm 28.3 22.2 8.1 28 11.0 N 30 46 16 25 1007.1 1007.1 0.0
22/01:55pm 28.3 22.8 9.1 30 10.6 N 28 46 15 25 1007.1 1007.1 0.0
22/01:30pm 27.4 21.4 8.8 31 10.2 N 30 44 16 24 1007.4 1007.4 0.0
22/01:20pm 26.9 21.4 9.3 33 9.7 N 28 46 15 25 1007.8 1007.8 0.0
22/01:00pm 25.3 20.0 10.0 38 8.5 N 28 39 15 21 1008.0 1008.0 0.0
22/12:30pm 23.7 18.7 9.7 41 7.6 NNE 26 35 14 19 1008.4 1008.4 0.0
22/12:17pm 23.0 17.7 9.8 43 7.2 NNE 28 37 15 20 1008.3 1008.3 0.0
22/12:00pm 24.0 19.0 8.0 36 8.5 N 24 33 13 18 1010.6 1010.6 0.0
22/11:30am 23.9 21.5 9.9 41 7.7 N 13 20 7 11 1010.5 1010.5 0.0
22/11:00am 22.2 19.9 11.6 51 5.9 NNE 15 20 8 11 1009.7 1009.7 0.0
22/10:30am 20.5 18.8 11.2 55 5.1 NNE 11 15 6 8 1010.0 1010.0 0.0
22/10:00am 18.8 16.9 10.6 59 4.4 NNE 11 17 6 9 1010.5 1010.5 0.0
22/09:30am 17.7 16.6 10.1 61 4.0 N 6 7 3 4 1010.8 1010.8 0.0
22/09:00am 16.7 15.6 10.8 68 3.2 N 7 11 4 6 1011.4 1011.4 0.8
22/08:30am 15.6 14.7 11.2 75 2.4 N 7 11 4 6 1011.2 1011.2 0.8
22/08:00am 14.1 14.1 11.1 82 1.6 NNW 2 9 1 5 1011.2 1011.2 0.8
22/07:30am 13.3 13.5 10.7 84 1.4 CALM 0 0 0 0 1010.6 1010.6 0.8
22/07:00am 12.4 12.5 10.3 87 1.1 CALM 0 0 0 0 1010.6 1010.6 0.8
22/06:30am 11.1 9.7 9.5 90 0.8 WSW 7 9 4 5 1010.3 1010.3 0.8
22/06:00am 10.8 9.0 9.6 92 0.6 N 9 13 5 7 1009.8 1009.8 0.8
22/05:30am 10.8 8.3 9.7 93 0.6 N 13 17 7 9 1009.7 1009.7 0.8
22/05:00am 9.6 7.6 8.5 93 0.5 NNW 9 9 5 5 1010.1 1010.1 0.8
22/04:30am 9.5 7.8 8.3 92 0.6 NNW 7 9 4 5 1009.9 1009.9 0.8
22/04:00am 10.1 8.5 8.9 92 0.6 NW 7 9 4 5 1009.7 1009.7 0.8
22/03:30am 10.4 8.5 9.2 92 0.6 WNW 9 11 5 6 1010.0 1010.0 0.8
22/03:00am 10.6 8.4 9.2 91 0.7 NNW 11 13 6 7 1010.2 1010.2 0.8
22/02:30am 10.4 8.4 8.8 90 0.8 NW 9 11 5 6 1010.5 1010.5 0.8
22/02:00am 10.8 8.9 8.9 88 0.9 WNW 9 11 5 6 1011.1 1011.1 0.8
22/01:30am 11.4 9.6 9.3 87 1.1 WNW 9 9 5 5 1011.4 1011.4 0.8
22/01:00am 11.5 10.1 9.4 87 1.1 WNW 7 9 4 5 1011.8 1011.7 0.8
22/12:30am 11.5 9.6 9.2 86 1.2 NNW 9 11 5 6 1012.3 1012.2 0.8
22/12:00am 13.1 11.7 9.5 79 1.8 E 7 11 4 6 1012.6 1012.5 0.8
 
Date/Time
EDT
Temp
°C
App
Temp
°C
Dew
Point
Rel
Hum
%
Delta-T
°C
Wind Press
QNH
hPa
Press
MSL
hPa
Rain
since 9 am
mm
Dir
 
Spd
km/h
Gust
km/h
Spd
kts
Gust
kts
21/11:30pm 14.7 13.7 11.1 79 1.9 SE 7 11 4 6 1012.6 1012.5 0.8
21/11:00pm 15.2 13.9 11.4 78 2.0 SE 9 13 5 7 1012.9 1012.8 0.8
21/10:30pm 15.5 13.9 11.7 78 2.1 SE 11 15 6 8 1012.8 1012.7 0.8
21/10:00pm 15.1 14.3 11.7 80 1.8 S 7 13 4 7 1012.7 1012.6 0.8
21/09:30pm 15.3 12.9 11.5 78 2.0 S 15 19 8 10 1012.6 1012.5 0.8
21/09:00pm 15.5 13.1 11.3 76 2.3 S 15 20 8 11 1012.3 1012.2 0.8
21/08:30pm 15.8 13.0 11.2 74 2.5 S 17 22 9 12 1012.4 1012.3 0.8
21/08:00pm 16.4 13.1 10.9 70 2.9 S 19 24 10 13 1011.9 1011.8 0.8
21/07:30pm 17.2 14.7 11.0 67 3.3 S 15 20 8 11 1011.7 1011.6 0.8
21/07:00pm 17.7 14.8 11.0 65 3.6 SSE 17 24 9 13 1011.2 1011.2 0.8
21/06:30pm 18.1 15.2 11.0 63 3.8 SSE 17 24 9 13 1010.9 1010.9 0.8
21/06:00pm 18.7 15.6 11.5 63 4.0 SSE 19 22 10 12 1010.7 1010.7 0.8
21/05:30pm 18.7 15.9 11.3 62 4.0 SE 17 24 9 13 1010.7 1010.7 0.8
21/05:00pm 18.8 15.4 11.4 62 4.1 SSE 20 30 11 16 1010.7 1010.7 0.8
21/04:30pm 18.9 15.6 11.7 63 4.0 SSE 20 30 11 16 1010.8 1010.8 0.8
21/04:00pm 19.1 15.3 11.2 60 4.3 SE 22 30 12 16 1011.0 1011.0 0.8
21/03:30pm 19.7 15.5 11.2 58 4.7 SE 24 32 13 17 1011.0 1011.0 0.8
21/03:00pm 20.5 16.8 10.3 52 5.5 ESE 20 32 11 17 1010.8 1010.8 0.8
21/02:30pm 21.1 17.7 10.6 51 5.7 E 19 24 10 13 1010.8 1010.8 0.8
21/02:00pm 21.7 18.2 8.6 43 6.9 SSW 17 24 9 13 1011.1 1011.1 0.8
21/01:30pm 21.9 18.3 6.6 37 7.8 WSW 15 28 8 15 1011.2 1011.2 0.8
21/01:00pm 21.4 17.5 7.3 40 7.3 WSW 17 28 9 15 1011.4 1011.4 0.8
21/12:30pm 21.2 18.7 8.1 43 6.8 W 11 20 6 11 1011.3 1011.3 0.8
21/12:00pm 20.5 16.7 9.1 48 6.0 WSW 19 28 10 15 1011.4 1011.4 0.8
21/11:30am 19.4 14.5 8.4 49 5.7 WSW 24 37 13 20 1011.8 1011.7 0.6
21/11:00am 19.0 14.6 8.9 52 5.3 SW 22 32 12 17 1011.9 1011.8 0.6
21/10:30am 18.3 14.5 9.1 55 4.8 W 19 26 10 14 1011.4 1011.4 0.6
21/10:00am 17.6 13.8 9.0 57 4.5 W 19 22 10 12 1010.9 1010.9 0.0
21/09:30am 17.1 13.5 10.5 65 3.5 WSW 20 28 11 15 1011.2 1011.2 0.0
21/09:00am 16.2 12.2 10.5 69 3.0 WSW 22 33 12 18 1011.2 1011.2 0.0
21/08:30am 16.0 11.7 10.7 71 2.8 WSW 24 33 13 18 1010.8 1010.8 0.0
21/08:00am 15.5 9.8 11.3 76 2.3 WSW 32 43 17 23 1010.5 1010.5 0.0
21/07:30am 15.9 12.9 12.5 80 1.9 WSW 20 26 11 14 1009.7 1009.7 0.0
21/07:00am 15.9 14.6 12.6 81 1.8 W 11 15 6 8 1009.0 1009.0 0.0
21/06:30am 15.9 15.0 12.5 80 1.9 W 9 15 5 8 1008.6 1008.6 0.0
21/06:00am 16.1 14.4 12.5 79 2.0 W 13 20 7 11 1008.2 1008.2 0.0
21/05:30am 16.3 14.7 12.7 79 2.0 W 13 19 7 10 1007.9 1007.9 0.0
21/05:00am 16.2 13.8 12.7 80 1.9 W 17 22 9 12 1007.4 1007.4 0.0
21/04:30am 16.2 12.6 12.9 81 1.8 WSW 24 41 13 22 1007.0 1007.0 0.0
21/04:00am 16.3 13.9 12.8 80 1.9 WSW 17 22 9 12 1006.4 1006.4 0.0
21/03:30am 16.4 12.7 12.8 79 2.0 SW 24 35 13 19 1006.1 1006.1 0.0
21/03:00am 16.8 13.2 12.9 78 2.2 SW 24 35 13 19 1006.0 1006.0 0.0
21/02:30am 17.7 13.8 14.4 81 1.9 SW 28 43 15 23 1005.6 1005.6 0.0
21/02:00am 19.5 19.9 15.2 76 2.5 NNW 7 11 4 6 1005.1 1005.1 0.0
21/01:30am 19.2 19.5 15.1 77 2.4 N 7 9 4 5 1005.1 1005.1 0.0
21/01:00am 20.2 19.1 15.4 74 2.9 NNW 15 22 8 12 1005.0 1005.0 0.0
21/12:30am 19.4 19.3 15.9 80 2.1 NE 11 15 6 8 1005.1 1005.1 0.0
21/12:00am 19.0 19.4 15.3 79 2.2 ESE 7 9 4 5 1005.1 1005.1 0.0
 
Date/Time
EDT
Temp
°C
App
Temp
°C
Dew
Point
Rel
Hum
%
Delta-T
°C
Wind Press
QNH
hPa
Press
MSL
hPa
Rain
since 9 am
mm
Dir
 
Spd
km/h
Gust
km/h
Spd
kts
Gust
kts
20/11:30pm 20.1 20.2 15.5 75 2.7 N 9 15 5 8 1005.1 1005.1 0.0
20/11:00pm 20.4 19.3 15.4 73 3.0 N 15 20 8 11 1005.2 1005.2 0.0
20/10:30pm 20.9 18.5 15.4 71 3.3 NNW 22 32 12 17 1005.5 1005.5 0.0
20/10:00pm 20.6 18.8 15.4 72 3.1 NNW 19 24 10 13 1005.9 1005.9 0.0
20/09:30pm 20.4 19.6 15.0 71 3.2 NNW 13 20 7 11 1005.9 1005.9 0.0
20/09:00pm 21.3 19.7 14.9 67 3.8 N 17 20 9 11 1005.8 1005.8 0.0
20/08:30pm 21.3 20.7 14.7 66 3.9 N 11 17 6 9 1006.1 1006.1 0.0
20/08:00pm 20.9 19.2 14.8 68 3.6 N 17 30 9 16 1005.7 1005.7 0.0
20/07:30pm 21.7 20.6 14.4 63 4.3 N 13 19 7 10 1006.3 1006.3 0.0
20/07:00pm 22.3 22.0 14.4 61 4.7 NNW 9 15 5 8 1006.4 1006.4 0.0
20/06:30pm 22.7 21.2 14.3 59 4.9 NNW 15 24 8 13 1006.3 1006.3 0.0
20/06:00pm 23.0 21.1 15.1 61 4.7 NW 19 24 10 13 1006.3 1006.3 0.0
20/05:30pm 22.8 23.1 16.1 66 4.1 WNW 9 13 5 7 1006.2 1006.2 0.0
20/05:00pm 23.4 22.6 15.2 60 4.9 W 13 17 7 9 1006.1 1006.1 0.0
20/04:30pm 23.3 21.4 15.1 60 4.9 W 19 28 10 15 1006.0 1006.0 0.0
20/04:02pm 24.4 20.4 14.2 53 6.0 W 28 46 15 25 1006.1 1006.1 0.0
20/04:00pm 24.6 20.5 13.8 51 6.4 W 28 41 15 22 1006.1 1006.1 0.0
20/03:30pm 26.3 20.9 12.7 43 7.9 W 33 54 18 29 1005.4 1005.4 0.0
20/03:28pm 26.4 21.0 12.8 43 7.9 W 33 52 18 28 1005.4 1005.4 0.0
20/03:00pm 27.3 20.5 12.1 39 8.8 W 39 56 21 30 1004.7 1004.7 0.0
20/02:30pm 27.9 22.8 11.9 37 9.2 WSW 30 50 16 27 1004.3 1004.3 0.0
20/02:05pm 28.3 23.5 11.8 36 9.5 W 28 46 15 25 1004.5 1004.5 0.0
20/02:00pm 28.3 23.5 11.8 36 9.6 WSW 28 39 15 21 1004.7 1004.7 0.0
20/01:43pm 28.6 23.4 11.6 34 9.8 WSW 30 48 16 26 1004.9 1004.9 0.0
20/01:41pm 29.8 24.6 10.4 30 11.0 W 28 43 15 23 1004.9 1004.9 0.0
20/01:30pm 30.1 26.2 7.3 24 12.3 NW 17 24 9 13 1004.6 1004.6 0.0
20/01:00pm 28.5 23.0 6.0 24 11.8 NNW 24 37 13 20 1004.8 1004.8 0.0
20/12:30pm 28.3 21.8 4.6 22 12.1 NNW 28 44 15 24 1004.6 1004.6 0.0
20/12:00pm 26.6 21.9 6.1 27 10.7 NNE 20 32 11 17 1004.6 1004.6 0.0
20/11:30am 26.7 21.6 6.2 27 10.7 N 22 33 12 18 1005.1 1005.1 0.0
20/11:00am 27.4 22.5 5.1 24 11.5 N 20 28 11 15 1005.1 1005.1 0.0

Other Formats:

Comma delimited format used in spreadsheet applications
http://www.bom.gov.au/fwo/IDV60801/IDV60801.94865.axf

JavaScript Object Notation format (JSON) in row-major order
http://www.bom.gov.au/fwo/IDV60801/IDV60801.94865.json